Regional Weather Roundup
Issued by NWS

Home | Current Version | Previous Version | Graphics & Text | Print | Product List | Glossary On
Versions: 1 2 3 4 5 6 7 8 9 10 11 12 13 14 15 16 17 18 19 20 21 22 23 24 25 26 27 28 29 30 31 32 33 34 35 36 37 38 39 40 41 42 43 44 45 46 47 48 49 50
000
ASUS43 KBIS 261710
RWRND

NORTH DAKOTA REGIONAL WEATHER ROUNDUP
NATIONAL WEATHER SERVICE BISMARCK ND
1200 PM CDT SAT JUL 26 2014

NOTE: "FAIR" INDICATES FEW OR NO CLOUDS BELOW 12,000 FEET WITH NO
SIGNIFICANT WEATHER AND/OR OBSTRUCTIONS TO VISIBILITY.


NDZ001>003-009>011-017-261800-
NORTHWEST NORTH DAKOTA

CITY           SKY/WX    TMP DP  RH WIND       PRES   REMARKS
WILLISTON      CLOUDY    68  50  52 W29G38    29.92R
MINOT          CLOUDY    66  52  60 SW23G32   29.81S
MINOT AFB      PTSUNNY   65  56  72 W24G31    29.79S
$$

NDZ018>021-031>035-040>046-261800-
SOUTHWEST NORTH DAKOTA

CITY           SKY/WX    TMP DP  RH WIND       PRES   REMARKS
BISMARCK       SUNNY     74  49  41 NW20G26   29.90S
DICKINSON      MOSUNNY   70  50  49 W24G36    29.96R
GARRISON         N/A     68  54  60 W23G32    29.87R
HETTINGER ARPT SUNNY     74  46  36 W26G35    30.01S
$$

NDZ004>008-012>016-024-026-027-054-261800-
NORTHEAST NORTH DAKOTA

CITY           SKY/WX    TMP DP  RH WIND       PRES   REMARKS
GRAND FORKS    MOSUNNY   74  57  55 W13       29.75S
GRND FRKS AFB  SUNNY     74  57  54 W12       29.76S
DEVILS LAKE    MOSUNNY   70  54  56 W24       29.76S
$$

NDZ022-023-025-028>030-036>039-047>053-261800-
SOUTHEAST NORTH DAKOTA

CITY           SKY/WX    TMP DP  RH WIND       PRES   REMARKS
FARGO          SUNNY     80  63  55 W14       29.78R
JAMESTOWN      SUNNY     74  52  46 W17       29.83S
$$




USA.gov is the U.S. government's official web portal to all federal, state and local government web resources and services.